Time,TemperatureF,DewpointF,PressureIn,WindDirection,WindDirectionDegrees,WindSpeedMPH,WindSpeedGustMPH,Humidity,HourlyPrecipIn,Conditions,Clouds,dailyrainin,SolarRadiationWatts/m^2,SoftwareType,DateUTC
2013-09-21 00:04:00,69.2,61.7,30.02,SW,217,1.2,1.2,77,0.00,,,0.00,0.0,WeatherDisplay:10.37,2013-09-20 22:04:00,
2013-09-21 00:09:00,69.0,61.5,30.02,WSW,242,1.2,1.2,77,0.00,,,0.00,0.0,WeatherDisplay:10.37,2013-09-20 22:09:00,
2013-09-21 00:14:00,68.7,61.2,30.02,South,181,0.0,1.0,77,0.00,,,0.00,0.0,WeatherDisplay:10.37,2013-09-20 22:14:00,
2013-09-21 00:19:00,68.5,61.4,30.02,NE,50,4.6,4.6,78,0.00,,,0.00,0.0,WeatherDisplay:10.37,2013-09-20 22:19:00,
2013-09-21 00:24:00,68.4,61.3,30.03,East,88,2.0,7.0,78,0.00,,,0.00,0.0,WeatherDisplay:10.37,2013-09-20 22:24:00,
2013-09-21 00:29:00,68.3,61.2,30.03,NE,49,6.9,6.9,78,0.00,,,0.00,0.0,WeatherDisplay:10.37,2013-09-20 22:29:00,
2013-09-21 00:34:00,68.2,61.4,30.03,WNW,290,1.2,1.2,79,0.00,,,0.00,0.0,WeatherDisplay:10.37,2013-09-20 22:34:00,
2013-09-21 00:39:00,68.1,61.3,30.03,WNW,288,0.0,1.0,79,0.00,,,0.00,0.0,WeatherDisplay:10.37,2013-09-20 22:39:00,
2013-09-21 00:44:00,68.1,61.3,30.02,SSW,197,0.0,0.0,79,0.00,,,0.00,0.0,WeatherDisplay:10.37,2013-09-20 22:44:00,
2013-09-21 00:49:00,67.9,61.1,30.03,SSW,204,1.2,1.2,79,0.00,,,0.00,0.0,WeatherDisplay:10.37,2013-09-20 22:49:00,
2013-09-21 00:54:00,67.9,61.5,30.03,SSW,210,0.0,2.0,80,0.00,,,0.00,0.0,WeatherDisplay:10.37,2013-09-20 22:54:00,
2013-09-21 00:59:00,67.8,61.4,30.03,West,271,1.2,1.2,80,0.00,,,0.00,0.0,WeatherDisplay:10.37,2013-09-20 22:59:00,
2013-09-21 01:04:00,67.8,61.4,30.03,WSW,242,0.0,2.0,80,0.00,,,0.00,0.0,WeatherDisplay:10.37,2013-09-20 23:04:00,
2013-09-21 01:09:00,67.8,61.8,30.03,SSW,194,2.3,2.3,81,0.00,,,0.00,0.0,WeatherDisplay:10.37,2013-09-20 23:09:00,
2013-09-21 01:14:00,67.9,61.9,30.03,WSW,245,2.3,2.3,81,0.00,,,0.00,0.0,WeatherDisplay:10.37,2013-09-20 23:14:00,
2013-09-21 01:19:00,68.0,61.6,30.03,SW,217,2.3,2.3,80,0.00,,,0.00,0.0,WeatherDisplay:10.37,2013-09-20 23:19:00,
2013-09-21 01:24:00,68.1,61.7,30.03,NW,325,1.0,2.0,80,0.00,,,0.00,0.0,WeatherDisplay:10.37,2013-09-20 23:24:00,
2013-09-21 01:29:00,68.1,61.7,30.03,East,82,2.3,2.3,80,0.00,,,0.00,0.0,WeatherDisplay:10.37,2013-09-20 23:29:00,
2013-09-21 01:34:00,68.0,61.6,30.03,South,170,0.0,3.0,80,0.00,,,0.00,0.0,WeatherDisplay:10.37,2013-09-20 23:34:00,
2013-09-21 01:39:00,67.9,61.5,30.03,South,178,3.5,3.5,80,0.00,,,0.00,0.0,WeatherDisplay:10.37,2013-09-20 23:39:00,
2013-09-21 01:44:00,67.8,61.4,30.03,ENE,67,2.3,2.3,80,0.00,,,0.00,0.0,WeatherDisplay:10.37,2013-09-20 23:44:00,
2013-09-21 01:49:00,67.7,61.3,30.03,South,189,2.0,4.0,80,0.00,,,0.00,0.0,WeatherDisplay:10.37,2013-09-20 23:49:00,
2013-09-21 01:54:00,67.7,61.3,30.03,SW,215,1.0,5.0,80,0.00,,,0.00,0.0,WeatherDisplay:10.37,2013-09-20 23:54:00,
2013-09-21 01:59:00,67.7,61.3,30.03,SSW,199,0.0,2.0,80,0.00,,,0.00,0.0,WeatherDisplay:10.37,2013-09-20 23:59:00,
2013-09-21 02:04:00,67.7,61.3,30.03,North,355,2.0,2.0,80,0.00,,,0.00,0.0,WeatherDisplay:10.37,2013-09-21 00:04:00,
2013-09-21 02:09:00,67.5,61.1,30.03,SW,225,2.3,0.0,80,0.00,,,0.00,0.0,WeatherDisplay:10.37,2013-09-21 00:09:00,
2013-09-21 02:14:00,67.4,61.0,30.03,WSW,237,0.0,2.0,80,0.00,,,0.00,0.0,WeatherDisplay:10.37,2013-09-21 00:14:00,
2013-09-21 02:19:00,67.3,61.3,30.03,WSW,247,1.2,1.2,81,0.00,,,0.00,0.0,WeatherDisplay:10.37,2013-09-21 00:19:00,
2013-09-21 02:24:00,67.2,61.2,30.04,WSW,247,0.0,0.0,81,0.00,,,0.00,0.0,WeatherDisplay:10.37,2013-09-21 00:24:00,
2013-09-21 02:29:00,67.1,61.1,30.04,WNW,286,0.0,2.0,81,0.00,,,0.00,0.0,WeatherDisplay:10.37,2013-09-21 00:29:00,
2013-09-21 02:34:00,67.0,61.0,30.04,SSW,201,0.0,3.0,81,0.00,,,0.00,0.0,WeatherDisplay:10.37,2013-09-21 00:34:00,
2013-09-21 02:39:00,67.3,61.3,30.04,SSW,200,2.3,2.3,81,0.00,,,0.00,0.0,WeatherDisplay:10.37,2013-09-21 00:39:00,
2013-09-21 02:44:00,67.6,61.6,30.04,SW,217,1.0,2.0,81,0.00,,,0.00,0.0,WeatherDisplay:10.37,2013-09-21 00:44:00,
2013-09-21 02:49:00,67.7,61.3,30.04,WSW,253,0.0,0.0,80,0.00,,,0.00,0.0,WeatherDisplay:10.37,2013-09-21 00:49:00,
2013-09-21 02:54:00,67.7,61.3,30.03,SW,218,0.0,1.0,80,0.00,,,0.00,0.0,WeatherDisplay:10.37,2013-09-21 00:54:00,
2013-09-21 02:59:00,67.7,61.0,30.03,SW,218,0.0,2.0,79,0.00,,,0.00,0.0,WeatherDisplay:10.37,2013-09-21 00:59:00,
2013-09-21 03:04:00,67.6,60.9,30.03,NW,307,1.2,0.0,79,0.00,,,0.00,0.0,WeatherDisplay:10.37,2013-09-21 01:04:00,
2013-09-21 03:09:00,67.5,60.8,30.03,East,94,0.0,0.1,79,0.00,,,0.00,0.0,WeatherDisplay:10.37,2013-09-21 01:09:00,
2013-09-21 03:14:00,67.4,60.7,30.03,East,101,0.0,1.0,79,0.00,,,0.00,0.0,WeatherDisplay:10.37,2013-09-21 01:14:00,
2013-09-21 03:19:00,67.3,60.6,30.03,SSE,159,1.2,1.2,79,0.00,,,0.00,0.0,WeatherDisplay:10.37,2013-09-21 01:19:00,
2013-09-21 03:24:00,67.1,60.4,30.03,WSW,247,1.2,1.2,79,0.00,,,0.00,0.0,WeatherDisplay:10.37,2013-09-21 01:24:00,
2013-09-21 03:29:00,67.1,60.7,30.03,South,178,2.3,2.3,80,0.00,,,0.00,0.0,WeatherDisplay:10.37,2013-09-21 01:29:00,
2013-09-21 03:34:00,67.1,60.7,30.03,ESE,107,2.3,2.3,80,0.00,,,0.00,0.0,WeatherDisplay:10.37,2013-09-21 01:34:00,
2013-09-21 03:39:00,67.2,60.8,30.03,SSW,212,0.0,2.0,80,0.00,,,0.00,0.0,WeatherDisplay:10.37,2013-09-21 01:39:00,
2013-09-21 03:44:00,67.1,60.7,30.03,West,275,1.2,1.2,80,0.00,,,0.00,0.0,WeatherDisplay:10.37,2013-09-21 01:44:00,
2013-09-21 03:49:00,67.1,60.7,30.04,SSW,202,3.5,3.5,80,0.00,,,0.00,0.0,WeatherDisplay:10.37,2013-09-21 01:49:00,
2013-09-21 03:54:00,67.2,60.8,30.04,SW,233,0.0,3.0,80,0.00,,,0.00,0.0,WeatherDisplay:10.37,2013-09-21 01:54:00,
2013-09-21 03:59:00,67.2,60.8,30.03,SSW,213,3.5,3.5,80,0.00,,,0.00,0.0,WeatherDisplay:10.37,2013-09-21 01:59:00,
2013-09-21 04:04:00,67.2,60.5,30.03,SW,218,1.0,4.0,79,0.00,,,0.00,0.0,WeatherDisplay:10.37,2013-09-21 02:04:00,
2013-09-21 04:09:00,67.2,60.5,30.03,South,186,0.0,3.0,79,0.00,,,0.00,0.0,WeatherDisplay:10.37,2013-09-21 02:09:00,
2013-09-21 04:14:00,67.2,60.5,30.03,West,260,1.2,1.2,79,0.00,,,0.00,0.0,WeatherDisplay:10.37,2013-09-21 02:14:00,
2013-09-21 04:19:00,67.1,60.4,30.03,WSW,240,0.0,2.0,79,0.00,,,0.00,0.0,WeatherDisplay:10.37,2013-09-21 02:19:00,
2013-09-21 04:24:00,67.1,60.4,30.03,SW,236,1.0,2.0,79,0.00,,,0.00,0.0,WeatherDisplay:10.37,2013-09-21 02:24:00,
2013-09-21 04:29:00,67.0,60.3,30.03,WSW,249,2.3,2.3,79,0.00,,,0.00,0.0,WeatherDisplay:10.37,2013-09-21 02:29:00,
2013-09-21 04:34:00,66.9,60.1,30.03,SW,233,1.0,3.0,79,0.00,,,0.00,0.0,WeatherDisplay:10.37,2013-09-21 02:34:00,
2013-09-21 04:39:00,66.8,60.4,30.03,SW,229,2.3,2.3,80,0.00,,,0.00,0.0,WeatherDisplay:10.37,2013-09-21 02:39:00,
2013-09-21 04:44:00,66.8,60.4,30.03,WSW,244,1.2,1.2,80,0.00,,,0.00,0.0,WeatherDisplay:10.37,2013-09-21 02:44:00,
2013-09-21 04:49:00,66.8,60.4,30.03,SSW,211,2.3,2.3,80,0.00,,,0.00,0.0,WeatherDisplay:10.37,2013-09-21 02:49:00,
2013-09-21 04:54:00,66.8,60.4,30.03,West,263,2.3,2.3,80,0.00,,,0.00,0.0,WeatherDisplay:10.37,2013-09-21 02:54:00,
2013-09-21 04:59:00,66.8,60.1,30.03,SSW,213,0.0,2.0,79,0.00,,,0.00,0.0,WeatherDisplay:10.37,2013-09-21 02:59:00,
2013-09-21 05:04:00,66.7,60.0,30.03,SSW,198,1.0,2.0,79,0.00,,,0.00,0.0,WeatherDisplay:10.37,2013-09-21 03:04:00,
2013-09-21 05:09:00,66.7,60.0,30.03,SSW,211,2.3,2.3,79,0.00,,,0.00,0.0,WeatherDisplay:10.37,2013-09-21 03:09:00,
2013-09-21 05:14:00,66.7,60.0,30.04,South,188,1.0,2.0,79,0.00,,,0.00,0.0,WeatherDisplay:10.37,2013-09-21 03:14:00,
2013-09-21 05:19:00,66.8,60.1,30.04,SSW,208,1.2,1.2,79,0.00,,,0.00,0.0,WeatherDisplay:10.37,2013-09-21 03:19:00,
2013-09-21 05:24:00,66.8,59.7,30.04,SW,230,1.2,1.2,78,0.00,,,0.00,0.0,WeatherDisplay:10.37,2013-09-21 03:24:00,
2013-09-21 05:29:00,66.7,59.6,30.04,ENE,74,2.3,2.3,78,0.00,,,0.00,0.0,WeatherDisplay:10.37,2013-09-21 03:29:00,
2013-09-21 05:34:00,66.6,59.5,30.04,North,355,0.0,3.0,78,0.00,,,0.00,0.0,WeatherDisplay:10.37,2013-09-21 03:34:00,
2013-09-21 05:39:00,66.4,59.3,30.04,NE,53,1.2,1.2,78,0.00,,,0.00,0.0,WeatherDisplay:10.37,2013-09-21 03:39:00,
2013-09-21 05:44:00,66.2,59.1,30.04,WSW,250,2.3,2.3,78,0.00,,,0.00,0.0,WeatherDisplay:10.37,2013-09-21 03:44:00,
2013-09-21 05:49:00,66.1,59.4,30.04,WSW,257,1.0,3.0,79,0.00,,,0.00,0.0,WeatherDisplay:10.37,2013-09-21 03:49:00,
2013-09-21 05:54:00,66.0,59.3,30.04,WSW,240,0.0,1.0,79,0.00,,,0.00,0.0,WeatherDisplay:10.37,2013-09-21 03:54:00,
2013-09-21 05:59:00,65.9,59.2,30.04,SW,224,2.3,2.3,79,0.00,,,0.00,0.0,WeatherDisplay:10.37,2013-09-21 03:59:00,
2013-09-21 06:01:00,65.9,59.2,30.04,SSW,212,2.3,2.3,79,0.00,,,0.00,0.0,WeatherDisplay:10.37,2013-09-21 04:01:00,
2013-09-21 06:02:00,65.9,59.2,30.04,West,263,2.3,2.3,79,0.00,,,0.00,0.0,WeatherDisplay:10.37,2013-09-21 04:02:00,
2013-09-21 06:07:00,65.8,59.1,30.04,SW,227,2.3,2.3,79,0.00,,,0.00,0.0,WeatherDisplay:10.37,2013-09-21 04:07:00,
2013-09-21 06:12:00,65.9,59.2,30.04,SSW,207,2.3,2.3,79,0.00,,,0.00,0.0,WeatherDisplay:10.37,2013-09-21 04:12:00,
2013-09-21 06:17:00,65.9,59.2,30.04,SW,222,1.2,1.2,79,0.00,,,0.00,0.0,WeatherDisplay:10.37,2013-09-21 04:17:00,
2013-09-21 06:22:00,65.9,59.2,30.04,West,277,1.2,0.0,79,0.00,,,0.00,0.0,WeatherDisplay:10.37,2013-09-21 04:22:00,
2013-09-21 06:27:00,65.8,59.1,30.04,SW,234,2.3,2.3,79,0.00,,,0.00,0.0,WeatherDisplay:10.37,2013-09-21 04:27:00,
2013-09-21 06:32:00,65.8,59.1,30.04,SSW,204,1.2,1.2,79,0.00,,,0.00,0.0,WeatherDisplay:10.37,2013-09-21 04:32:00,
2013-09-21 06:37:00,65.9,59.2,30.04,SSW,205,0.0,0.0,79,0.00,,,0.00,0.0,WeatherDisplay:10.37,2013-09-21 04:37:00,
2013-09-21 06:42:00,66.0,59.3,30.05,SW,225,1.2,1.2,79,0.00,,,0.00,0.0,WeatherDisplay:10.37,2013-09-21 04:42:00,
2013-09-21 06:47:00,66.1,59.0,30.05,SW,219,2.3,2.3,78,0.00,,,0.00,0.0,WeatherDisplay:10.37,2013-09-21 04:47:00,
2013-09-21 06:52:00,66.2,59.1,30.04,NNE,23,2.3,2.3,78,0.00,SCT,,0.00,5.0,WeatherDisplay:10.37,2013-09-21 04:52:00,
2013-09-21 06:57:00,66.3,59.2,30.05,NE,51,3.5,3.5,78,0.00,BKN,,0.00,7.0,WeatherDisplay:10.37,2013-09-21 04:57:00,
2013-09-21 07:02:00,66.5,59.4,30.05,East,100,3.5,3.5,78,0.00,BKN,,0.00,12.0,WeatherDisplay:10.37,2013-09-21 05:02:00,
2013-09-21 07:07:00,66.7,59.6,30.05,North,355,3.5,3.5,78,0.00,BKN,,0.00,18.0,WeatherDisplay:10.37,2013-09-21 05:07:00,
2013-09-21 07:12:00,66.8,59.7,30.05,West,267,1.2,1.2,78,0.00,BKN,,0.00,25.0,WeatherDisplay:10.37,2013-09-21 05:12:00,
2013-09-21 07:17:00,66.8,59.7,30.05,WSW,245,1.0,0.0,78,0.00,BKN,,0.00,33.0,WeatherDisplay:10.37,2013-09-21 05:17:00,
2013-09-21 07:22:00,66.9,59.8,30.05,WSW,256,1.2,1.2,78,0.00,SCT,,0.00,44.0,WeatherDisplay:10.37,2013-09-21 05:22:00,
2013-09-21 07:27:00,66.9,59.8,30.05,SE,144,1.2,1.2,78,0.00,SCT,,0.00,56.0,WeatherDisplay:10.37,2013-09-21 05:27:00,
2013-09-21 07:32:00,67.0,59.9,30.05,WSW,251,1.2,1.2,78,0.00,SCT,,0.00,67.0,WeatherDisplay:10.37,2013-09-21 05:32:00,
2013-09-21 07:37:00,67.1,59.6,30.06,SW,229,2.3,2.3,77,0.00,SCT,,0.00,83.0,WeatherDisplay:10.37,2013-09-21 05:37:00,
2013-09-21 07:42:00,67.3,60.2,30.06,WSW,238,1.2,1.2,78,0.00,FEW,,0.00,97.0,WeatherDisplay:10.37,2013-09-21 05:42:00,
2013-09-21 07:47:00,67.5,60.0,30.06,SW,223,1.2,1.2,77,0.00,FEW,,0.00,113.0,WeatherDisplay:10.37,2013-09-21 05:47:00,
2013-09-21 07:52:00,67.8,60.3,30.06,SSW,200,1.2,1.2,77,0.00,FEW,,0.00,130.0,WeatherDisplay:10.37,2013-09-21 05:52:00,
2013-09-21 07:57:00,68.1,60.2,30.06,NE,55,1.2,1.2,76,0.00,FEW,,0.00,149.0,WeatherDisplay:10.37,2013-09-21 05:57:00,
2013-09-21 08:02:00,68.5,60.6,30.06,East,92,2.3,2.3,76,0.00,CLR,,0.00,167.0,WeatherDisplay:10.37,2013-09-21 06:02:00,
2013-09-21 08:09:00,69.0,60.7,30.06,East,82,2.3,2.3,75,0.00,OVC,,0.00,192.0,WeatherDisplay:10.37,2013-09-21 06:09:00,
2013-09-21 08:14:00,69.3,60.7,30.06,SE,125,1.2,1.2,74,0.00,CLR,,0.00,211.0,WeatherDisplay:10.37,2013-09-21 06:14:00,